Location: Blangy
(50.3000°N, 2.8000°E)
Time: 18:04:43
(UTC+00:00)

Daily predictions for brighter satellites

Satellite Brightness Start Highest point End
(mag) Time Altitude Azimuth Time Altitude Azimuth Time Altitude Azimuth
USA 234 3.3 16:55:33 10° ESE 17:02:07 87° NNE 17:08:41 10° WNW
Starlink E 3.4 17:03:43 10° WNW 17:06:54 50° N 17:10:05 10° ENE
Meteor 1-24 Rocket 4.4 17:02:34 10° SSW 17:07:49 57° WNW 17:13:16 10° N
Starlink J 3.4 17:05:57 10° WNW 17:09:08 50° N 17:12:19 10° ENE
YAOGAN 6 3.2 17:07:15 10° SE 17:10:38 36° ENE 17:14:00 10° N
Starlink V 3.4 17:08:09 10° WNW 17:11:20 50° N 17:14:31 10° E
H-2A R/B 2.9 17:07:29 10° S 17:11:22 81° WSW 17:15:19 10° NNW
ERBS 2.5 17:09:50 10° WSW 17:13:09 65° NNW 17:16:28 10° NE
Starlink H 3.4 17:10:23 10° WNW 17:13:35 50° N 17:16:46 10° E
Cosmos 2227 Rocket 2.3 17:08:36 10° SSW 17:14:09 61° ESE 17:19:45 10° NE
IRS-1C Rocket 4.2 17:09:44 10° SSE 17:15:00 85° WSW 17:20:18 10° NNW
Starlink F 3.4 17:12:37 10° WNW 17:15:49 50° N 17:19:00 10° E
Cosmos 1602 Rocket 4.0 17:11:35 10° SSW 17:15:56 67° WNW 17:20:16 10° N
NOAA 12 4.1 17:12:15 10° SSE 17:17:28 75° ENE 17:22:43 10° NNW
Starlink G 3.4 17:14:51 10° WNW 17:18:03 50° N 17:21:10 10° E
Cosmos 2341 Rocket 4.1 17:12:40 10° S 17:18:57 65° E 17:25:13 10° NNE
SMAP 3.4 17:15:23 10° S 17:20:01 73° WSW 17:24:43 10° NNW
Starlink L 3.3 17:17:04 10° WNW 17:20:16 51° N 17:23:18 11° E
Starlink A 3.3 17:19:19 10° WNW 17:22:31 51° N 17:25:28 12° E
PSLV R/B 4.0 17:20:33 10° NNE 17:24:39 84° WNW 17:28:46 10° SSW
Starlink R 3.3 17:21:34 10° WNW 17:24:46 51° N 17:27:37 12° E
Cosmos 1626 3.7 17:23:19 10° SW 17:26:47 37° WNW 17:30:17 10° N
Starlink K 3.3 17:23:47 10° WNW 17:27:00 52° N 17:29:46 13° E
Cosmos 1943 4.1 17:22:56 10° NNW 17:27:48 28° NE 17:32:40 10° ESE
Starlink M 3.3 17:26:00 10° WNW 17:29:13 52° N 17:31:53 14° E
Cosmos 1339 Rocket 4.4 17:23:34 10° N 17:29:39 64° ENE 17:35:44 10° SSE
Cosmos 1953 Rocket 3.8 17:25:38 10° SSE 17:29:57 49° E 17:34:18 10° NNE
CZ-4B R/B 4.1 17:28:22 10° NNW 17:30:20 16° WNW 17:32:18 10° WSW
Cosmos 1689 Rocket 4.4 17:27:53 10° N 17:30:22 24° WNW 17:32:51 10° SW
Iridium 96 3.5 17:28:38 10° N 17:31:02 60° E 17:33:34 10° SSE
COSMO-SKYMED 1 3.2 17:27:23 10° NNE 17:31:26 36° E 17:35:26 10° SSE
Cosmos 1328 4.3 17:27:43 10° SSE 17:31:29 39° E 17:35:15 10° NNE
Cosmos 1842 Rocket 4.4 17:27:48 10° N 17:31:46 30° ENE 17:35:42 10° SE
Meteor 1-21 Rocket 4.2 17:27:56 10° S 17:33:35 81° E 17:39:23 10° NNE
CZ-4 R/B 1.7 17:29:57 10° SE 17:33:52 44° ENE 17:37:52 10° N
Cosmos 1758 Rocket 3.5 17:29:37 10° S 17:33:56 86° E 17:38:18 10° N
Starlink AR 2.8 17:32:43 10° WNW 17:35:20 49° N 17:37:04 18° E
FengYun 1-2 T 4.2 17:31:34 10° SSE 17:37:11 72° ENE 17:42:51 10° NNW
ATLAS CENTAUR R/B 1.2 17:33:26 10° NW 17:37:34 89° NE 17:41:21 10° SE
Cosmos 2218 Rocket 4.1 17:34:52 10° S 17:41:06 60° E 17:47:24 10° NNE
CSL-04 Debris 4.4 17:37:54 10° SE 17:43:04 49° ENE 17:48:17 10° N
Shenzhou-11 Module 4.1 17:45:22 10° SW 17:47:14 17° S 17:49:06 10° SE
SL-8 R/B 4.0 17:42:33 10° WSW 17:47:18 59° SSE 17:50:52 17° E
Cosmos 2251 Rocket 3.6 17:43:56 10° NNW 17:49:17 87° WSW 17:54:37 10° SSE
Cosmos 1959 Rocket 4.4 17:43:51 10° S 17:49:54 66° E 17:55:58 10° NNE
USA 116 4.2 17:53:20 24° E 17:53:51 25° E 17:56:28 10° SSE
Cosmos 1703 3.2 17:52:14 10° S 17:56:11 71° E 18:00:10 10° NNE
Cosmos 1825 Rocket 4.0 17:51:55 10° SSW 17:56:13 65° WNW 18:00:32 10° N
H-2A R/B 3.2 17:55:39 19° ENE 17:56:40 20° NE 18:00:20 10° N
ATLAS 5 CENTAUR R/B 3.7 17:56:21 10° NW 17:59:53 20° N 18:03:10 12° NE
Cosmos 1356 Rocket 3.2 17:56:21 10° N 18:00:26 73° ENE 18:04:33 10° SSE
Envisat 3.9 17:56:50 10° S 18:01:48 52° W 18:06:46 10° NNW
Cosmos 1455 3.0 17:58:22 10° NNW 18:02:05 53° W 18:05:45 10° S
CSL-04 Rocket 3.7 17:56:43 10° SSE 18:02:11 67° ENE 18:07:44 10° N
Cosmos 2221 2.8 17:58:54 10° N 18:03:01 42° ENE 18:07:06 10° SE
Cosmos 2366 rocket 4.0 18:01:41 10° S 18:07:56 84° E 18:14:17 10° N
USA 267 3.3 18:03:50 17° ENE 18:09:03 84° NNW 18:15:36 10° WSW
Starlink T 2.9 18:07:49 10° WNW 18:11:01 66° NNE 18:11:56 41° E
Starlink N 2.9 18:09:50 10° WNW 18:13:02 67° NNE 18:13:52 44° E
Starlink Q 2.9 18:12:05 10° WNW 18:15:18 68° NNE 18:16:03 47° E
Starlink P 2.9 18:14:11 10° WNW 18:17:24 69° NNE 18:18:04 50° E
ISS -3.8 18:15:04 10° W 18:18:27 80° NNW 18:19:20 47° ENE
Okean-O 4.2 18:15:15 10° SSW 18:19:23 38° W 18:23:34 10° NNW
Starlink U 2.9 18:16:17 10° WNW 18:19:30 71° NNE 18:20:05 53° ENE
SKYMED 2 3.7 18:15:14 10° NNE 18:19:36 78° WNW 18:23:56 10° SSW
Cosmos 407 Rocket 3.6 18:15:22 10° NNW 18:20:34 53° ENE 18:24:47 15° SE
Cosmos 1190 Rocket 4.2 18:16:13 10° NNW 18:21:23 48° ENE 18:24:42 21° SE
Starlink B 2.9 18:18:24 10° WNW 18:21:37 72° NNE 18:22:08 57° ENE
Cosmos 1869 3.7 18:18:12 10° N 18:21:59 39° ENE 18:22:05 38° ENE
CZ-2D R/B 3.1 18:18:36 10° SSE 18:22:26 81° ENE 18:26:20 10° NNW
Cosmos 1939 Rocket 2.8 18:22:56 10° SSE 18:26:53 90° NNE 18:30:57 10° NNW
NOSS 3-2 (A) 4.3 18:23:36 10° SSE 18:28:17 26° ESE 18:28:18 26° ESE
SL-16 R/B 3.8 18:24:18 10° NW 18:29:27 36° WSW 18:34:33 10° S
Starlink AS 2.6 18:26:53 10° WNW 18:29:42 77° NNW 18:29:42 77° NNW
Starlink BA 2.6 18:27:06 10° WNW 18:29:55 77° NNW 18:29:55 77° NNW
Starlink AU 2.7 18:27:19 10° WNW 18:30:07 76° NNW 18:30:07 76° NNW
Starlink AT 2.7 18:27:33 10° WNW 18:30:21 76° NNW 18:30:21 76° NNW
Starlink BB 2.7 18:27:46 10° WNW 18:30:34 76° NNW 18:30:34 76° NNW
Starlink BC 2.7 18:27:59 10° WNW 18:30:46 76° NNW 18:30:46 76° NNW
Starlink BK 2.7 18:28:13 10° WNW 18:30:59 75° NNW 18:30:59 75° NNW
Starlink AY 2.7 18:28:26 10° WNW 18:31:13 75° NW 18:31:13 75° NW
Starlink AW 2.7 18:28:38 10° WNW 18:31:24 75° NW 18:31:24 75° NW
Starlink BJ 2.7 18:28:53 10° WNW 18:31:39 74° NW 18:31:39 74° NW
Starlink AV 2.7 18:29:08 10° WNW 18:31:53 74° NW 18:31:53 74° NW
Starlink BD 2.7 18:29:21 10° WNW 18:32:05 73° NW 18:32:05 73° NW
Starlink BE 2.7 18:29:33 10° WNW 18:32:19 75° NW 18:32:19 75° NW
Starlink BM 2.8 18:29:48 10° WNW 18:32:31 72° NW 18:32:31 72° NW
Starlink AX 2.8 18:30:03 10° WNW 18:32:45 72° NW 18:32:45 72° NW
Starlink BH 2.8 18:30:14 10° WNW 18:32:56 72° NW 18:32:56 72° NW
Starlink AZ 2.8 18:30:27 10° WNW 18:33:09 71° NW 18:33:09 71° NW
Starlink BG 2.8 18:30:42 10° WNW 18:33:22 71° NW 18:33:22 71° NW
Cosmos 676 Rocket 4.5 18:28:43 10° NNW 18:33:45 39° ENE 18:34:34 37° ENE
Starlink BF 2.8 18:30:54 10° WNW 18:33:35 70° NW 18:33:35 70° NW
Starlink BL 2.8 18:31:06 10° WNW 18:33:49 72° NW 18:33:49 72° NW
Starlink AH 2.8 18:31:21 10° WNW 18:34:00 69° NW 18:34:00 69° NW
Starlink AC 2.9 18:31:36 10° WNW 18:34:14 69° NW 18:34:14 69° NW
Starlink X 2.9 18:31:49 10° WNW 18:34:27 68° NW 18:34:27 68° NW
Starlink AE 2.8 18:31:58 10° WNW 18:34:41 71° NW 18:34:41 71° NW
Starlink AQ 2.9 18:32:07 10° WNW 18:34:46 69° NW 18:34:46 69° NW
Starlink Z 2.9 18:32:14 10° WNW 18:34:52 68° WNW 18:34:52 68° WNW
Starlink AK 2.9 18:32:29 10° WNW 18:35:06 67° WNW 18:35:06 67° WNW
Cosmos 1727 Rocket 4.3 18:29:18 10° NNW 18:35:27 68° W 18:41:34 10° S
Starlink AL 2.9 18:32:44 10° WNW 18:35:20 66° WNW 18:35:20 66° WNW
Starlink AD 2.9 18:32:57 10° WNW 18:35:33 66° WNW 18:35:33 66° WNW
YAOGAN 1 3.2 18:31:50 10° S 18:36:05 58° W 18:40:23 10° NNW
Cosmos 44 4.0 18:32:00 10° WSW 18:36:18 44° NW 18:38:46 22° NNE
Starlink Y 3.0 18:33:24 10° WNW 18:35:58 65° WNW 18:35:58 65° WNW
Starlink AG 3.0 18:33:36 10° WNW 18:36:11 65° WNW 18:36:11 65° WNW
Starlink W 3.0 18:33:46 10° WNW 18:36:23 66° WNW 18:36:23 66° WNW
Starlink D 2.8 18:33:30 10° WNW 18:36:42 83° NNW 18:36:42 83° NNW
Starlink AJ 3.0 18:34:03 10° WNW 18:36:36 64° WNW 18:36:36 64° WNW
Cosmos 2227 4.4 18:31:39 10° S 18:37:09 49° ESE 18:39:03 35° ENE
Starlink AM 3.0 18:34:31 10° WNW 18:37:03 63° WNW 18:37:03 63° WNW
Starlink AP 3.1 18:34:43 10° WNW 18:37:15 62° WNW 18:37:15 62° WNW
Starlink AA 3.1 18:34:58 10° WNW 18:37:30 62° WNW 18:37:30 62° WNW
Starlink AF 3.1 18:35:10 10° WNW 18:37:41 61° WNW 18:37:41 61° WNW
Starlink AB 3.1 18:35:25 10° WNW 18:37:55 61° WNW 18:37:55 61° WNW
Starlink AN 3.1 18:35:37 10° WNW 18:38:07 60° WNW 18:38:07 60° WNW
Starlink S 2.9 18:35:43 10° WNW 18:38:50 80° NW 18:38:50 80° NW
Cosmos 2082 4.3 18:34:18 10° SW 18:39:50 55° NW 18:44:54 13° NNE
Starlink C 3.0 18:37:53 10° WNW 18:40:55 76° WNW 18:40:55 76° WNW
SJ-11-01 4.3 18:39:25 32° SE 18:41:24 55° ENE 18:46:01 10° N
Cosmos 1603 3.7 18:37:09 10° NNW 18:42:52 85° WSW 18:48:29 10° SSE
Starlink E 3.1 18:40:06 10° WNW 18:43:03 71° WNW 18:43:03 71° WNW
Ariane Rocket 2.9 18:40:01 10° SSE 18:45:03 71° ENE 18:50:09 10° NNW
Cosmos 2297 Rocket 3.6 18:39:58 10° WSW 18:45:05 34° NW 18:50:14 10° NNE
Starlink J 3.2 18:42:19 10° WNW 18:45:12 67° WNW 18:45:12 67° WNW
ARGOS 3.5 18:46:23 42° ENE 18:46:23 42° ENE 18:51:24 10° N
Starlink V 3.4 18:44:32 10° WNW 18:47:19 62° WNW 18:47:19 62° WNW
ERBS 3.9 18:47:03 10° WNW 18:49:39 26° NNW 18:49:39 26° NNW
Starlink H 3.5 18:46:46 10° WNW 18:49:28 58° WNW 18:49:28 58° WNW
Cosmos 2263 Rocket 2.3 18:45:31 10° S 18:50:49 48° ESE 18:51:06 47° E
Starlink F 3.6 18:49:00 10° WNW 18:51:38 54° W 18:51:38 54° W
Starlink G 3.8 18:51:14 10° WNW 18:53:47 51° W 18:53:47 51° W
ADEOS Rocket 3.3 18:49:02 10° NNE 18:55:47 70° ESE 19:03:12 10° S
Starlink L 3.9 18:53:27 10° WNW 18:55:55 47° W 18:55:55 47° W
CZ-2C R/B 3.5 18:57:36 46° ENE 18:57:36 46° ENE 19:02:45 10° N
Cosmos 614 Rocket 4.1 18:53:14 10° NNW 18:58:27 76° WSW 19:02:54 14° SSE
Cosmos 2227 Rocket 3.8 18:53:38 10° WSW 18:58:36 31° NW 19:03:28 11° NNE
Starlink A 4.1 18:55:42 10° WNW 18:58:05 44° W 18:58:05 44° W
Starlink R 4.2 18:57:58 10° WNW 19:00:15 41° W 19:00:15 41° W
SL-24 R/B 4.4 19:02:51 63° ENE 19:02:51 63° ENE 19:08:08 10° N
Starlink K 4.4 19:00:11 10° WNW 19:02:24 39° W 19:02:24 39° W
Cosmos 2056 Rocket 4.1 19:00:01 10° S 19:03:46 42° SSE 19:03:46 42° SSE
Starlink M 4.5 19:02:25 10° WNW 19:04:32 37° W 19:04:32 37° W
COSMO-SKYMED 1 4.5 19:03:44 10° N 19:07:29 29° WNW 19:11:13 10° SW
Cosmos 2084 4.1 19:03:32 10° NW 19:06:58 47° N 19:06:58 47° N
USA 238 DEB 3.7 19:01:59 10° SSW 19:08:25 53° ESE 19:08:59 51° ESE
USA 238 3.7 19:02:07 10° SSW 19:08:32 52° ESE 19:09:02 51° ESE
CZ-4 R/B 4.0 19:05:54 10° SW 19:09:06 22° W 19:12:22 10° NW
Cosmos 1943 3.4 19:06:43 10° NNW 19:12:21 68° WSW 19:15:42 25° S
Cosmos 1023 Rocket 4.5 19:09:06 10° NNW 19:14:25 82° WSW 19:15:39 54° S
Cosmos 1821 Rocket 4.1 19:08:35 10° SSW 19:14:56 78° W 19:21:15 10° N
ATLAS CENTAUR R/B 4.4 19:14:16 10° W 19:15:43 12° WSW 19:17:09 10° SW
Timation 1 Rocket 4.2 19:13:34 10° SSW 19:19:30 71° ESE 19:19:34 71° ESE
Cosmos 44 Rocket 3.4 19:18:10 10° SW 19:22:39 71° W 19:22:39 71° W
Cosmos 1140 Rocket 3.7 19:20:01 10° NNW 19:25:15 70° WSW 19:26:09 57° SSW
SL-8 R/B 4.2 19:24:53 10° W 19:28:50 57° WSW 19:28:50 57° WSW
H-2A R/B 2.3 19:36:15 63° NW 19:36:15 63° NW 19:40:43 10° NNW
Cosmos 2123 Rocket 4.2 19:33:01 10° NNW 19:39:16 67° W 19:45:28 10° S
Cosmos 967 Rocket 4.5 19:34:52 10° NW 19:41:23 79° SW 19:41:54 73° S
ATLAS 5 CENTAUR R/B 3.8 19:41:58 10° NW 19:44:42 22° N 19:44:42 22° N
Cosmos 1934 Rocket 4.0 19:40:19 10° SSW 19:46:21 71° W 19:52:25 10° N
Cosmos 2082 Rocket 4.4 19:43:48 10° N 19:44:58 13° N 19:44:58 13° N
USA 267 3.6 19:51:11 51° N 19:51:47 52° N 19:58:05 10° W
ISS -0.3 19:52:00 10° WNW 19:52:18 12° WNW 19:52:18 12° WNW
Cosmos 2263 Rocket 3.9 20:29:46 10° WSW 20:32:52 28° W 20:32:52 28° W
